Topeka, KS

6:43 PM CDT on March 25, 2017 (GMT -0500)
Billard Municipal

Weather History for KTOP - August, 2012

Change the Weather History Date:

Wednesday, August 15, 2012

  Actual Average Record
Temperature  
Mean Temperature 76 °F 78 °F  
Max Temperature 95 °F 89 °F 112 °F (1936)
Min Temperature 56 °F 67 °F 50 °F (1994)
Degree Days  
Heating Degree Days 0 0  
Month to date heating degree days 0 0  
Since 1 June heating degree days 9 8  
Since 1 July heating degree days 0 0  
Cooling Degree Days 11 13  
Month to date cooling degree days 207 204  
Year to date cooling degree days 1629 1046  
Since 1 June cooling degree days 1311 920  
Growing Degree Days 25 (Base 50)    
Moisture  
Dew Point 63 °F    
Average Humidity 66    
Maximum Humidity 93    
Minimum Humidity 39    
Precipitation  
Precipitation 0.00 in 0.14 in 1.80 in (1990)
Month to date precipitation 0.55 2.03  
Year to date precipitation 15.83 24.36  
Snow  
Snow 0.00 in 0.00 in 0.00 in ()
Month to date snowfall 0.0 0.0  
Year to date snowfall 3.0 11.3  
Since 1 July snowfall 0.0 0.0  
Snow Depth 0.00 in    
Sea Level Pressure  
Sea Level Pressure 29.85 in    
Wind  
Wind Speed 6 mph (SSE)    
Max Wind Speed 17 mph    
Max Gust Speed 24 mph    
Visibility 10 miles    
Events      
T = Trace of Precipitation, MM = Missing Value Source: NWS Daily Summary

Daily Weather History Graph

Daily Weather History Graph

Search for Another Location

Airport or City:

Trip Planner

Search our weather history database for the weather conditions in past years. The results will help you decide how hot, cold, wet, or windy it might be!

Date:

Astronomy

Aug. 15, 2012 Rise Set
Actual Time 6:36 AM CDT 8:16 PM CDT
Civil Twilight 6:07 AM CDT 8:45 PM CDT
Nautical Twilight 5:33 AM CDT 9:19 PM CDT
Astronomical Twilight 4:56 AM CDT 9:56 PM CDT
Moon 4:34 AM CDT (8/15) 6:50 PM CDT (8/15)
Length of Visible Light 14h 37m
Length of Day
13h 40m
Waning Crescent, 4% of the Moon is Illuminated
Aug 15
Waning Crescent
Aug 17
New
Aug 24
First Quarter
Aug 31
Full
Sep 8
Last Quarter

Hourly Weather History & Observations

Time (CDT) Temp. Heat Index Dew Point Humidity Pressure Visibility Wind Dir Wind Speed Gust Speed Precip Events Conditions
12:53 AM 62.1 °F - 59.0 °F 90% 29.94 in 10.0 mi Calm Calm - N/A   Clear
1:53 AM 61.0 °F - 57.9 °F 90% 29.94 in 10.0 mi Calm Calm - N/A   Clear
2:53 AM 60.1 °F - 57.0 °F 90% 29.93 in 10.0 mi Calm Calm - N/A   Clear
3:53 AM 57.0 °F - 55.0 °F 93% 29.92 in 10.0 mi ESE 3.5 mph - N/A   Clear
4:53 AM 57.0 °F - 55.0 °F 93% 29.91 in 9.0 mi Calm Calm - N/A   Clear
5:53 AM 57.0 °F - 55.9 °F 96% 29.92 in 8.0 mi Calm Calm - N/A   Clear
6:53 AM 59.0 °F - 57.0 °F 93% 29.92 in 7.0 mi Calm Calm - N/A   Clear
7:53 AM 62.1 °F - 60.1 °F 93% 29.92 in 8.0 mi East 3.5 mph - N/A   Clear
8:53 AM 68.0 °F - 62.1 °F 81% 29.92 in 10.0 mi SE 3.5 mph - N/A   Clear
9:53 AM 73.0 °F - 62.1 °F 68% 29.90 in 10.0 mi South 8.1 mph - N/A   Clear
10:53 AM 79.0 °F - 62.1 °F 56% 29.89 in 10.0 mi Variable 5.8 mph - N/A   Clear
11:53 AM 82.9 °F 84.4 °F 64.0 °F 53% 29.87 in 10.0 mi SSW 10.4 mph - N/A   Clear
12:53 PM 88.0 °F 89.6 °F 64.9 °F 46% 29.84 in 10.0 mi SSE 12.7 mph - N/A   Clear
1:53 PM 91.0 °F 93.8 °F 66.0 °F 44% 29.82 in 10.0 mi South 11.5 mph - N/A   Clear
2:53 PM 93.0 °F 95.9 °F 66.0 °F 41% 29.79 in 10.0 mi SSE 15.0 mph 21.9 mph N/A   Clear
3:53 PM 95.0 °F 97.9 °F 66.0 °F 38% 29.78 in 10.0 mi South 10.4 mph 17.3 mph N/A   Clear
4:53 PM 95.0 °F 97.9 °F 66.0 °F 38% 29.77 in 10.0 mi South 10.4 mph - N/A   Clear
5:53 PM 93.9 °F 97.0 °F 66.0 °F 40% 29.75 in 10.0 mi South 15.0 mph 19.6 mph N/A   Clear
6:53 PM 93.9 °F 97.0 °F 66.0 °F 40% 29.74 in 10.0 mi South 6.9 mph 19.6 mph N/A   Clear
7:53 PM 91.0 °F 94.3 °F 66.9 °F 45% 29.74 in 10.0 mi SSE 6.9 mph - N/A   Clear
9:53 PM 81.0 °F 84.1 °F 69.1 °F 67% 29.78 in 10.0 mi Calm Calm - N/A   Clear
10:53 PM 79.0 °F - 69.1 °F 72% 29.80 in 10.0 mi Calm Calm - N/A   Clear
11:53 PM 81.0 °F 84.1 °F 69.1 °F 67% 29.81 in 10.0 mi SSW 4.6 mph - N/A   Clear